Location: Dos Palmas
(32.4468°N, 116.8732°W)
Time: 12:08:03
(UTC+00:00)

CBERS-1 - Pass Details

Date: 20 June 2021
Orbit: 770 x 776 km, 98.7° (Epoch: 30 July)

Event Time Altitude Azimuth Distance (km) Brightness Sun altitude
Rises 10:24:31 0° 10° (N) 3,259 8.3 -22.9°
Reaches altitude 10° 10:26:51 10° 9° (N) 2,329 7.3 -22.6°
Maximum altitude 10:31:58 74° 285° (WNW) 808 3.9 -21.9°
Enters shadow 10:33:16 50° 215° (SW) 982 4.1 -21.8°
